Regional Weather Roundup
Issued by NWS

Home | Current Version | Previous Version | Text Only | Print | Product List | Glossary Off
Versions: 1 2 3 4 5 6 7 8 9 10 11 12 13 14 15 16 17 18 19 20 21 22 23 24 25 26 27 28 29 30 31 32 33 34 35 36 37 38 39 40 41 42 43 44 45 46 47 48 49 50

000
ASUS43 KTOP 212059
RWRKS

WEATHER ROUNDUP FOR KANSAS
NATIONAL WEATHER SERVICE GOODLAND KS
400 PM CDT THU AUG 21 2014

NOTE:  "FAIR" INDICATES FEW OR NO CLOUDS BELOW 12,000 FEET WITH NO
SIGNIFICANT WEATHER AND/OR OBSTRUCTIONS TO VISIBILITY.

KSZ001>006-013>018-027>032-041>047-212200-
NORTHWEST KANSAS

CITY           SKY/WX    TMP DP  RH WIND       PRES   REMARKS
GOODLAND       SUNNY     93  47  20 N13       29.97F
HAYS           MOSUNNY   99  64  32 SW15G24   29.83S HX 101
HILL CITY      SUNNY     97  62  31 N7        29.85S HX  98
RUSSELL        SUNNY     98  67  36 S16G28    29.82S HX 102
$$

KSZ061>065-074>080-084>089-212200-
SOUTHWEST KANSAS

CITY           SKY/WX    TMP DP  RH WIND       PRES   REMARKS
DODGE CITY     LGT RAIN  97  64  33 S13       29.86F HX  99
ELKHART          N/A     97  58  27 SW3         N/A  HX  96
GARDEN CITY    SUNNY     95  59  30 SW8       29.88F
GREAT BEND     SUNNY     99  64  32 S22G30    29.83F HX 101
LIBERAL        SUNNY    100  54  20 S15G21    29.90S HX  98
$$

KSZ066>073-081>083-090>101-212200-
SOUTHEAST KANSAS

CITY           SKY/WX    TMP DP  RH WIND       PRES   REMARKS
CHANUTE        SUNNY     97  69  40 S22       29.92F HX 103
COFFEYVILLE    SUNNY     95  74  50 S17G26    29.92F HX 105
HUTCHINSON     SUNNY    100  64  30 S23G31    29.85F HX 102
NEWTON         SUNNY     97  66  36 S25G31    29.90F HX 100
PARSONS        MOSUNNY   94  73  50 S14G22    29.93F HX 103
WICHITA INTL   MOSUNNY   98  68  37 S20G31    29.86F HX 103
WICHITA JABRA  MOSUNNY   96  68  39 S22G31    29.87F HX 101
WINFIELD       SUNNY     97  69  40 S17G29    29.90F HX 103
$$

KSZ007>012-019>026-033>040-048>060-102>105-212200-
NORTHEAST KANSAS

CITY           SKY/WX    TMP DP  RH WIND       PRES   REMARKS
CONCORDIA      SUNNY     94  69  44 S16G25    29.82S HX  99
EMPORIA        SUNNY     97  69  40 S17G28    29.87F HX 103
LAWRENCE       SUNNY    100  70  37 SW15G26   29.85F HX 107
MANHATTAN      SUNNY    102  67  31 S14G26    29.81F HX 107
OLATHE IND     SUNNY     97  70  41 S18G26    29.88F HX 103
OLATHE EXE     SUNNY     94  72  48 S12       29.88F HX 102
SALINA         SUNNY    100  67  33 S20G31    29.81F HX 105
TOPEKA BILLARD SUNNY     99  71  40 S13G21    29.84F HX 107
TOPEKA FORBES  SUNNY     99  68  36 SW20      29.85F HX 104
$$


USA.gov is the U.S. government's official web portal to all federal, state and local government web resources and services.